Location: *
(49.7401°S, 165.4029°W)
Time: 03:03:09
(UTC+00:00)

Daily predictions for brighter satellites

Satellite Brightness Start Highest point End
(mag) Time Altitude Azimuth Time Altitude Azimuth Time Altitude Azimuth
Cosmos 2026 Rocket 4.2 05:31:29 10° S 05:37:48 58° ESE 05:43:57 10° NNE
CENTAUR R/B 3.8 05:32:12 10° WNW 05:39:39 48° SW 05:45:54 10° SE
Cosmos 1766 4.4 05:37:00 10° SSW 05:40:48 49° W 05:44:33 10° N
Okean 3 3.4 05:36:47 10° N 05:40:59 69° E 05:45:13 10° SSE
COSMOS 2455 3.6 05:35:14 10° SW 05:41:10 56° WNW 05:47:02 10° NNE
JB-3 4.2 05:38:45 10° NNE 05:42:36 72° ESE 05:46:30 10° S
Cosmos 2322 3.8 05:36:58 10° SSW 05:42:46 76° ESE 05:48:30 10° NE
Lacrosse 5 rocket 2.5 05:40:18 10° N 05:42:58 19° NE 05:45:42 10° E
Nadezhda 4 Rocket 4.4 05:38:07 10° SSW 05:44:24 72° W 05:50:41 10° N
ATLAS CENTAUR R/B 3.9 05:42:55 10° SW 05:44:29 12° SSW 05:46:02 10° S
Meteor 2-8 Rocket 4.5 05:40:34 10° N 05:46:39 68° E 05:52:50 10° SSE
SMAP 3.4 05:42:15 10° SSE 05:47:01 77° WSW 05:51:43 10° NNW
Cosmos 2242 Rocket 3.7 05:42:38 10° N 05:47:04 58° E 05:51:36 10° SSE
H-2A R/B 3.2 05:43:55 10° ENE 05:47:46 28° ESE 05:51:39 10° S
Cosmos 1992 Rocket 4.2 05:42:47 10° NNW 05:48:04 84° WSW 05:53:26 10° SSE
Cosmos 1758 3.9 05:44:32 10° S 05:48:22 38° ESE 05:52:06 10° NE
Genesis I 3.6 05:45:39 10° N 05:49:02 37° ENE 05:52:27 10° SE
Cosmos 1908 4.0 05:46:41 10° S 05:50:16 32° ESE 05:53:47 10° NE
Cosmos 1607 4.1 05:44:28 10° SW 05:50:54 66° SE 05:57:14 10° NE
Meteor 1-22 Rocket 4.4 05:49:12 10° SSW 05:54:47 77° W 06:00:09 10° N
Sich 1 Rocket 4.4 05:51:30 10° S 05:55:40 33° ESE 05:59:46 10° NE
ATLAS 3B R/B 3.9 05:52:16 10° NNE 05:57:20 20° ENE 06:02:14 10° ESE
CZ-4B R/B 3.2 06:01:01 11° E 06:01:59 13° ESE 06:03:22 10° SE
USA 307 3.5 06:00:39 10° WSW 06:04:41 47° S 06:08:29 11° E
USA 276 2.9 06:02:52 10° NW 06:05:37 32° NNE 06:07:38 15° E
Cosmos 1818 3.5 06:01:54 10° NNW 06:07:17 74° NE 06:12:43 10° SE
Cosmos 1470 3.4 06:03:39 10° SSW 06:07:38 60° W 06:11:34 10° N
ATLAS 5 CENTAUR R/B 2.4 06:01:41 10° SW 06:07:44 55° SE 06:11:58 14° ENE
Cosmos 2227 Rocket 3.8 06:07:50 13° ENE 06:08:45 13° E 06:11:19 10° ESE
CZ-4 R/B 2.5 06:11:17 10° SE 06:14:29 22° E 06:17:22 12° NE
Cosmos 1354 Rocket 4.3 06:09:33 10° SSW 06:14:55 71° WNW 06:20:12 10° NNE
Cosmos 2333 Rocket 3.5 06:09:45 10° SW 06:15:12 43° WNW 06:20:37 10° N
Radarsat Rocket 4.0 06:09:34 10° SSE 06:15:31 75° ENE 06:21:47 10° NNW
Cosmos 1980 4.1 06:11:31 10° SSW 06:17:04 48° SE 06:21:34 15° NE
USA 306 3.4 06:13:13 10° WSW 06:17:18 52° S 06:20:30 16° E
Cosmos 2219 Rocket 3.0 06:14:19 10° SW 06:19:52 54° WNW 06:25:23 10° N
Cosmos 1092 Rocket 4.5 06:14:29 10° SSW 06:20:49 67° W 06:27:08 10° N
COSMOS 2487 4.2 06:18:34 10° NW 06:21:12 29° WSW 06:23:52 10° S
H-2A R/B 4.1 06:17:00 10° S 06:21:19 30° WSW 06:25:36 10° WNW
CZ-4 R/B 4.4 06:17:16 10° SSE 06:21:32 75° ENE 06:25:43 10° N
Cosmos 2297 Rocket 3.1 06:17:56 10° NNE 06:22:31 25° ENE 06:27:06 10° SE
SL-08 RB Rocket 4.4 06:18:03 10° S 06:22:33 59° WSW 06:26:59 10° NNW
Cosmos 2221 Rocket 4.2 06:20:30 10° NNE 06:24:44 37° E 06:29:00 10° SSE
USA 234 3.9 06:22:35 10° ESE 06:28:59 54° SSW 06:35:24 10° W
SL-27 R/B 3.3 06:26:35 10° NW 06:29:48 48° WSW 06:33:03 10° SSE
Cosmos 1953 2.9 06:26:17 10° S 06:30:10 39° ESE 06:32:25 21° NE
ERBS 3.6 06:29:27 10° SW 06:32:02 26° SSE 06:33:25 18° ESE
Cosmos 1655 Rocket 4.4 06:25:56 10° S 06:32:07 45° ESE 06:37:01 16° NE
Timation 1 Rocket 4.4 06:26:23 10° NNW 06:32:17 61° ENE 06:38:15 10° SE
Cosmos 1674 2.7 06:29:01 10° NNW 06:32:44 82° W 06:36:31 10° S
Okean O Rocket 2.1 06:29:11 10° SSE 06:33:22 38° E 06:37:28 10° NNE
Cosmos 1378 Rocket 4.2 06:31:31 15° NNE 06:34:34 33° E 06:38:32 10° SSE
COBE Rocket 4.0 06:29:22 10° SSE 06:34:39 67° E 06:39:50 10° N
Cosmos 2237 Rocket 2.3 06:32:10 10° SSW 06:37:55 63° ESE 06:41:48 21° NE
HJ-1C 3.3 06:35:27 10° SSE 06:38:36 52° E 06:41:29 12° N
Cosmos 1763 Rocket 4.4 06:35:32 13° NNE 06:39:20 27° E 06:43:47 10° SE
USA 308 3.3 06:35:38 10° WSW 06:39:45 55° SSE 06:42:05 24° E
Cosmos 1300 Rocket 4.4 06:39:06 10° SSW 06:43:25 53° W 06:47:40 10° N
Okean 1 Rocket 3.6 06:40:35 10° S 06:44:46 39° ESE 06:46:20 29° ENE
MOS 1-B 4.3 06:39:10 10° SSE 06:45:01 66° ENE 06:50:48 10° N
Cosmos 724 4.3 06:40:00 10° SW 06:46:05 81° SE 06:49:57 23° NE
COSMOS 2428 3.5 06:41:55 10° SW 06:47:29 50° WNW 06:52:58 10° N
YAOGAN 1 2.5 06:45:01 10° SSE 06:49:26 69° ENE 06:53:47 10° N
USA 186 4.2 06:48:00 10° SE 06:48:22 12° SE 06:48:22 12° SE
Okean 2 Rocket 3.0 06:47:12 10° S 06:51:43 89° ESE 06:55:22 15° N
SJ 16-02 3.4 06:49:03 10° SW 06:52:53 28° W 06:56:40 10° NNW
Cosmos 1300 2.8 06:49:42 10° S 06:53:30 53° ESE 06:54:38 38° NE
Cosmos 2266 Rocket 4.0 06:47:42 10° S 06:53:58 66° ESE 06:58:47 18° NNE
Cosmos 220 Rocket 4.4 06:52:49 10° SSW 06:57:12 48° ESE 06:58:34 35° ENE
NOSS 0 Rocket 4.2 06:52:44 10° SW 06:58:59 67° WNW 07:04:02 16° NNE
Cosmos 2219 4.2 07:00:24 26° E 07:00:24 26° E 07:04:19 10° SE
CZ-4C R/B 3.4 06:52:46 10° N 07:00:14 37° ENE 07:06:43 10° SE
Feng Yun 1-1 Rocket 4.5 06:56:10 10° SSE 07:02:05 55° E 07:07:49 10° N
CZ-4B R/B 3.0 06:56:57 10° SSE 07:02:26 82° ENE 07:07:46 10° NNW
Okean 2 4.1 06:59:11 10° NNW 07:03:16 56° WSW 07:07:23 10° S
CSL-04 Rocket 4.3 07:01:59 10° SSE 07:06:50 32° E 07:07:01 32° E
USA 305 2.8 07:03:43 10° WSW 07:07:54 75° SSE 07:08:59 47° E
Cosmos 1626 4.1 07:08:31 10° NW 07:11:49 30° WSW 07:15:10 10° S
Cosmos 2279 Rocket 4.4 07:07:17 10° NNW 07:13:32 65° WSW 07:19:50 10° S
Cosmos 1455 4.0 07:11:00 10° SSE 07:12:57 19° SE 07:12:57 19° SE
Cosmos 1271 Rocket 2.5 07:11:21 10° SSW 07:15:14 87° E 07:15:57 57° NNE
SL-16 R/B 2.6 07:12:36 10° SSW 07:18:11 47° SE 07:19:50 37° E
Cosmos 2151 Rocket 4.3 07:14:43 10° SSW 07:19:12 55° W 07:22:24 18° NNW
IGS 5A 4.1 07:16:27 10° SSE 07:19:44 39° ESE 07:19:44 39° ESE
Lacrosse 5 rocket 1.1 07:17:49 10° WNW 07:21:31 77° SSW 07:22:29 48° SE
APEX 4.0 07:17:17 10° SW 07:22:02 56° WNW 07:23:20 38° N
H-2A R/B 3.3 07:19:39 12° NNW 07:23:30 42° W 07:27:52 10° SSW
Cosmos 1937 Rocket 3.8 07:18:33 10° SSW 07:23:47 51° ESE 07:24:49 45° E
Meteor 2-10 Rocket 3.6 07:18:48 10° SSW 07:24:06 80° W 07:26:58 29° N
Aureole 3 Rocket 2.8 07:25:25 27° NNW 07:27:19 65° W 07:30:34 10° S
Cosmos 990 Rocket 4.0 07:23:15 10° SSW 07:28:29 77° WNW 07:30:22 40° N
CZ-2C R/B 3.6 07:30:04 61° ENE 07:30:36 67° ESE 07:35:08 10° S
CENTAUR R/B 4.5 07:26:08 10° WSW 07:31:46 25° SSW 07:36:39 10° SE
CZ-4B R/B 2.3 07:33:07 41° W 07:33:07 41° W 07:35:48 10° SSW
Cosmos 44 4.3 07:27:53 10° SSW 07:32:53 38° SE 07:33:57 34° ESE
Okean-O 3.1 07:32:12 10° SSE 07:35:47 46° ESE 07:35:47 46° ESE
OBJECT-B 3.3 07:35:26 10° S 07:35:46 13° S 07:35:46 13° S
Resurs 1-3 4.5 07:34:52 10° SSE 07:37:52 36° SE 07:37:52 36° SE
USA 276 4.1 07:38:02 10° W 07:39:23 24° W 07:39:23 24° W
IRAS Rocket 4.4 07:39:48 34° N 07:42:19 70° WNW 07:47:59 10° SSW
Cosmos 1674 Rocket 4.3 07:38:37 11° NNW 07:42:50 53° WSW 07:47:19 10° S
USA 307 2.9 07:40:11 10° WSW 07:44:03 76° W 07:44:03 76° W
ATLAS 3B R/B 2.7 07:39:45 10° NNW 07:47:09 79° NE 07:54:08 10° SE
CZ-4 R/B 2.7 07:45:48 10° S 07:49:33 39° WSW 07:53:19 10° NW
Cosmos 1898 Rocket 3.5 07:45:03 10° SSW 07:50:19 78° WNW 07:51:09 62° N
Cosmos 468 Rocket 3.9 07:48:42 37° NNW 07:50:54 85° ENE 07:56:20 10° SSE
Cosmos 1943 4.3 07:46:15 10° SSW 07:51:13 29° SE 07:51:55 28° ESE
Cosmos 2227 Rocket 2.1 07:49:16 35° NNW 07:51:48 75° ENE 07:57:33 10° SSE
ATLAS 5 CENTAUR R/B 3.1 07:47:01 10° SW 07:52:04 33° WNW 07:53:25 29° NNW
USA 306 3.4 07:52:40 10° WSW 07:56:02 52° W 07:56:02 52° W
SJ-6B 3.4 07:52:59 10° S 07:56:12 54° SSW 07:56:12 54° SSW
Cosmos 1025 Rocket 4.4 08:01:57 31° SSE 08:01:57 31° SSE 08:04:26 10° SSE
Cosmos 540 Rocket 3.5 08:03:35 70° SE 08:03:35 70° SE 08:08:17 10° SSE
Cosmos 2297 Rocket 2.6 08:00:29 10° NW 08:06:07 63° WSW 08:11:49 10° SSE
SL-08 ROCKET BODY 4.5 08:00:36 10° SSW 08:06:52 78° W 08:08:26 53° N
Cosmos 1238 Rocket 4.1 08:01:09 10° SSW 08:06:54 55° W 08:08:13 43° NW
Cosmos 1975 Rocket 4.3 08:09:16 33° SSE 08:09:16 33° SSE 08:11:49 10° SSE
Okean O Rocket 3.6 08:05:46 10° S 08:09:34 28° WSW 08:13:18 10° WNW
USA 234 4.0 08:07:57 26° ESE 08:11:25 49° S 08:17:44 10° WSW
IRS-1C Rocket 4.0 08:10:00 10° SSE 08:15:24 86° WSW 08:15:31 84° WNW
CSL-04 Debris 4.4 08:11:05 10° S 08:16:38 68° WSW 08:18:25 43° NW
Cosmos 371 Rocket 4.2 08:13:32 10° SSW 08:17:16 42° SSE 08:17:16 42° SSE
USA 308 4.3 08:15:08 10° WSW 08:17:39 33° W 08:17:39 33° W
Cosmos 972 Rocket 4.3 08:14:18 10° SSW 08:19:12 66° SE 08:19:12 66° SE
SPOT 1/Viking Rocket 4.5 08:14:51 10° SSE 08:18:15 37° SE 08:18:15 37° SE
Cosmos 1763 Rocket 4.3 08:15:42 10° NW 08:20:51 51° WSW 08:26:06 10° SSE
Cosmos 2237 Rocket 3.9 08:16:54 10° SW 08:21:33 26° WNW 08:23:39 21° NW
Meteor 1-24 Rocket 3.7 08:21:42 85° NNW 08:21:54 89° W 08:27:57 10° SSE
Cosmos 1553 Rocket 4.0 08:25:22 71° E 08:25:22 71° E 08:31:31 10° SSE
Cosmos 1455 Rocket 4.0 08:22:00 10° SSW 08:25:33 48° SW 08:25:33 48° SW
NOSS 3-1 (C) 4.1 08:18:04 10° NNW 08:26:59 65° NE 08:34:43 10° SE
H-2A R/B 4.0 08:28:26 10° SSE 08:31:01 33° SSE 08:31:01 33° SSE
Cosmos 372 Rocket 4.5 08:30:13 10° SSW 08:34:57 56° W 08:34:57 56° W
Cosmos 2219 3.6 08:42:08 49° WNW 08:43:22 60° WSW 08:49:03 10° SSE
CZ-4C R/B 3.0 08:40:26 10° NW 08:48:41 73° SW 08:55:28 10° SE
Meteor 2-5 Rocket 4.5 08:50:46 45° WNW 08:51:43 50° WSW 08:57:29 10° S
Resurs 01 Rocket 3.3 08:47:40 10° S 08:50:00 30° S 08:50:00 30° S
Cosmos 2263 Rocket 3.9 08:55:43 23° SE 08:55:43 23° SE 08:57:45 10° SE
Ariane Rocket 4.5 08:50:09 10° SSE 08:52:43 30° SSE 08:52:43 30° SSE
Lacrosse 5 rocket 4.1 08:57:34 10° WSW 08:58:02 13° WSW 08:58:02 13° WSW
SL-16 R/B 3.4 08:56:59 10° SW 09:01:43 35° W 09:01:43 35° W
Terra 4.3 09:00:19 10° SSE 09:01:05 14° SE 09:01:05 14° SE
ATLAS CENTAUR R/B 4.2 09:02:37 10° SSW 09:03:23 13° S 09:03:23 13° S
CENTAUR R/B 3.9 09:19:04 10° SW 09:24:21 27° SSE 09:25:31 25° SE
Cosmos 1943 4.3 09:30:04 10° SSW 09:33:43 40° SW 09:33:43 40° SW
NOSS 3-1 (A) 4.2 09:37:11 67° SE 09:37:11 67° SE 09:43:33 10° SE
Cosmos 2227 Rocket 4.1 09:31:41 10° W 09:36:27 26° SW 09:41:16 10° SSE
ATLAS 3B R/B 3.9 09:31:46 10° W 09:38:29 39° SSW 09:44:50 10° SE
CZ-2D R/B 4.5 09:45:17 14° SE 09:45:17 14° SE 09:47:27 10° SSE
Resurs 1-4 Rocket 4.5 09:45:42 15° SE 09:45:42 15° SE 09:48:08 10° SSE
USA 234 3.6 09:55:15 60° SW 09:55:15 60° SW 10:00:40 10° WSW
ADEOS II 4.3 10:33:52 19° SE 10:33:52 19° SE 10:36:44 10° SSE
Cosmos 2263 Rocket 3.8 10:37:21 29° SSW 10:37:21 29° SSW 10:41:29 10° SSE
CZ-4C R/B 4.2 10:31:36 10° W 10:38:15 31° SSW 10:43:50 10° SE
Terra 4.1 10:38:02 10° S 10:39:58 22° SSW 10:39:58 22° SSW
USA 281 4.1 10:43:32 10° SSE 10:47:54 44° SE 10:47:54 44° SE
ADEOS Rocket 4.0 10:43:08 10° SSE 10:48:20 48° SE 10:48:20 48° SE
USA 229 DEB 4.3 10:58:24 57° SSW 10:58:24 57° SSW 11:05:04 10° SE
USA 229 4.3 10:58:31 57° SSW 10:58:31 57° SSW 11:05:10 10° SE
USA 267 4.2 10:54:51 10° ESE 10:58:44 39° ESE 10:58:44 39° ESE
Lacrosse 5 4.5 11:09:09 14° SE 11:09:09 14° SE 11:09:57 10° ESE
CENTAUR R/B 4.0 11:10:07 10° SW 11:12:40 25° SW 11:12:40 25° SW
CZ-2D R/B 3.8 11:26:35 30° S 11:26:35 30° S 11:29:13 10° S
Resurs 1-4 Rocket 3.7 11:26:45 31° S 11:26:45 31° S 11:29:33 10° SSW
Cosmos 1833 Rocket 4.4 11:27:41 10° SSW 11:30:17 28° SSW 11:30:17 28° SSW
NOSS 3-2 (C) 4.4 11:27:49 10° SW 11:32:40 43° SSW 11:32:40 43° SSW
IDEFIX/ARIANE 42P 4.1 11:46:15 32° S 11:46:15 32° S 11:49:10 10° S
USA 238 DEB 4.2 11:42:00 10° SW 11:47:28 52° SSW 11:47:28 52° SSW
USA 238 4.2 11:42:06 10° SW 11:47:37 53° SSW 11:47:37 53° SSW
Cosmos 2082 Rocket 3.5 11:45:18 10° SSW 11:49:09 38° S 11:49:09 38° S
